Weather History for KRQB - September, 2012

Change the Weather History Date:

Saturday, September 15, 2012

  Actual Average Record
Temperature  
Mean Temperature 56 °F -  
Max Temperature 73 °F 69 °F 83 °F (1991)
Min Temperature 38 °F 46 °F 32 °F (1989)
Degree Days  
Heating Degree Days 10    
Growing Degree Days 6 (Base 50)    
Moisture  
Dew Point 42 °F    
Average Humidity 68    
Maximum Humidity 95    
Minimum Humidity 29    
Precipitation  
Precipitation 0.00 in - - ()
Sea Level Pressure  
Sea Level Pressure 30.25 in    
Wind  
Wind Speed 2 mph (SW)    
Max Wind Speed 10 mph    
Max Gust Speed 21 mph    
Visibility 10 miles    
Events      
Averages and records for this station are not official NWS values.
T = Trace of Precipitation, MM = Missing Value Source: NWS Daily Summary

Daily Weather History Graph

Daily Weather History Graph

Search for Another Location

Airport or City:

Trip Planner

Search our weather history database for the weather conditions in past years. The results will help you decide how hot, cold, wet, or windy it might be!

Date:

Astronomy

Sep. 15, 2012 Rise Set
Actual Time 7:21 AM EDT 7:51 PM EDT
Civil Twilight 6:52 AM EDT 8:20 PM EDT
Nautical Twilight 6:18 AM EDT 8:54 PM EDT
Astronomical Twilight 5:43 AM EDT 9:29 PM EDT
Moon 6:52 AM EDT (9/15) 7:19 PM EDT (9/15)
Length of Visible Light 13h 27m
Length of Day
12h 29m
Waning Crescent, 0% of the Moon is Illuminated
Sep 15
Waning Crescent
Sep 15
New
Sep 22
First Quarter
Sep 29
Full
Oct 8
Last Quarter

Hourly Weather History & Observations

Time (EDT) Temp. Windchill Dew Point Humidity Pressure Visibility Wind Dir Wind Speed Gust Speed Precip Events Conditions
12:35 AM 43.7 °F - 40.6 °F 89% 30.29 in 10.0 mi Calm Calm - N/A   Clear
12:55 AM 43.7 °F - 39.9 °F 87% 30.29 in 10.0 mi Calm Calm - N/A   Clear
1:15 AM 42.4 °F 40.7 °F 39.7 °F 90% 30.29 in 10.0 mi South 3.5 mph - N/A   Clear
1:35 AM 43.0 °F - 41.0 °F 93% 30.30 in 10.0 mi Calm Calm - N/A   Clear
1:55 AM 42.8 °F - 40.8 °F 93% 30.30 in 10.0 mi Calm Calm - N/A   Clear
2:15 AM 41.9 °F - 39.6 °F 91% 30.30 in 10.0 mi Calm Calm - N/A   Clear
2:35 AM 41.0 °F - 38.5 °F 91% 30.30 in 10.0 mi Calm Calm - N/A   Clear
2:55 AM 41.7 °F - 39.9 °F 93% 30.30 in 10.0 mi Calm Calm - N/A   Clear
3:15 AM 40.8 °F - 38.7 °F 92% 30.30 in 10.0 mi Calm Calm - N/A   Clear
3:35 AM 40.5 °F - 38.7 °F 93% 30.30 in 10.0 mi Calm Calm - N/A   Clear
3:55 AM 41.0 °F - 38.8 °F 92% 30.30 in 10.0 mi Calm Calm - N/A   Clear
4:15 AM 40.6 °F - 38.8 °F 93% 30.30 in 10.0 mi Calm Calm - N/A   Clear
4:35 AM 40.6 °F - 38.5 °F 92% 30.30 in 10.0 mi Calm Calm - N/A   Clear
4:55 AM 39.4 °F - 37.6 °F 93% 30.31 in 10.0 mi Calm Calm - N/A   Clear
5:15 AM 39.2 °F - 37.6 °F 94% 30.31 in 10.0 mi Calm Calm - N/A   Clear
5:35 AM 39.4 °F - 37.8 °F 94% 30.31 in 10.0 mi Calm Calm - N/A   Clear
5:54 AM 38.7 °F - 36.9 °F 93% 30.31 in 10.0 mi Calm Calm - N/A   Clear
6:15 AM 38.3 °F 31.9 °F 36.9 °F 95% 30.32 in 10.0 mi SSW 9.2 mph - N/A   Clear
6:35 AM 38.3 °F 33.9 °F 36.7 °F 94% 30.32 in 10.0 mi SSW 5.8 mph - N/A   Clear
6:54 AM 38.3 °F - 36.7 °F 94% 30.32 in 10.0 mi Calm Calm - N/A   Clear
7:15 AM 38.3 °F 33.9 °F 36.9 °F 95% 30.33 in 10.0 mi SSW 5.8 mph - N/A   Clear
7:34 AM 38.1 °F - 36.7 °F 95% 30.33 in 10.0 mi Calm Calm - N/A   Clear
7:55 AM 39.2 °F - 37.4 °F 93% 30.33 in 10.0 mi Calm Calm - N/A   Clear
8:15 AM 41.0 °F - 38.7 °F 91% 30.34 in 10.0 mi Calm Calm - N/A   Clear
8:34 AM 41.9 °F - 39.6 °F 91% 30.33 in 10.0 mi Calm Calm - N/A   Clear
8:55 AM 44.1 °F - 41.0 °F 89% 30.33 in 10.0 mi Calm Calm - N/A   Clear
9:14 AM 46.4 °F - 41.9 °F 84% 30.34 in 10.0 mi Calm Calm - N/A   Clear
9:35 AM 49.3 °F - 43.3 °F 80% 30.33 in 10.0 mi Calm Calm - N/A   Clear
9:55 AM 52.3 °F - 44.2 °F 74% 30.33 in 10.0 mi Calm Calm - N/A   Clear
10:14 AM 55.9 °F - 46.0 °F 69% 30.32 in 10.0 mi Calm Calm - N/A   Clear
10:35 AM 59.4 °F - 47.1 °F 64% 30.32 in 10.0 mi SE 5.8 mph - N/A   Clear
10:55 AM 61.5 °F - 46.0 °F 57% 30.31 in 10.0 mi ESE 3.5 mph - N/A   Clear
11:15 AM 62.8 °F - 45.5 °F 53% 30.30 in 10.0 mi South 6.9 mph - N/A   Clear
11:35 AM 64.2 °F - 44.1 °F 48% 30.30 in 10.0 mi SW 3.5 mph - N/A   Clear
11:55 AM 66.2 °F - 43.0 °F 43% 30.30 in 10.0 mi South 6.9 mph - N/A   Clear
12:15 PM 67.1 °F - 42.4 °F 41% 30.29 in 10.0 mi South 4.6 mph - N/A   Clear
12:35 PM 67.8 °F - 42.1 °F 39% 30.28 in 10.0 mi SSW 5.8 mph - N/A   Clear
12:55 PM 69.3 °F - 43.3 °F 39% 30.27 in 10.0 mi South 4.6 mph - N/A   Scattered Clouds
1:15 PM 69.8 °F - 43.5 °F 39% 30.26 in 10.0 mi West 4.6 mph - N/A   Scattered Clouds
1:35 PM 71.2 °F - 41.5 °F 34% 30.26 in 10.0 mi West 8.1 mph - N/A   Mostly Cloudy
1:55 PM 70.7 °F - 40.8 °F 34% 30.25 in 10.0 mi West 10.4 mph 17.3 mph N/A   Mostly Cloudy
2:15 PM 72.0 °F - 37.8 °F 29% 30.25 in 10.0 mi West 6.9 mph 20.7 mph N/A   Scattered Clouds
2:55 PM 73.0 °F - 39.2 °F 29% 30.22 in 10.0 mi WSW 8.1 mph 18.4 mph N/A   Scattered Clouds
3:15 PM 72.9 °F - 39.7 °F 30% 30.21 in 10.0 mi WSW 5.8 mph - N/A   Scattered Clouds
3:35 PM 73.6 °F - 39.6 °F 29% 30.21 in 10.0 mi West 8.1 mph - N/A   Scattered Clouds
3:55 PM 73.6 °F - 39.4 °F 29% 30.20 in 10.0 mi West 9.2 mph - N/A   Scattered Clouds
4:15 PM 73.9 °F - 40.1 °F 29% 30.19 in 10.0 mi West 8.1 mph 17.3 mph N/A   Scattered Clouds
4:35 PM 73.9 °F - 39.9 °F 29% 30.19 in 10.0 mi West 8.1 mph - N/A   Scattered Clouds
4:55 PM 73.9 °F - 39.7 °F 29% 30.18 in 10.0 mi West 6.9 mph - N/A   Clear
5:15 PM 73.6 °F - 40.1 °F 30% 30.18 in 10.0 mi SSW 4.6 mph - N/A   Scattered Clouds
5:35 PM 73.4 °F - 40.8 °F 31% 30.17 in 10.0 mi SW 3.5 mph - N/A   Scattered Clouds
5:54 PM 73.4 °F - 42.4 °F 33% 30.17 in 10.0 mi SSW 5.8 mph 19.6 mph N/A   Mostly Cloudy
6:15 PM 71.8 °F - 43.7 °F 36% 30.16 in 10.0 mi SSW 8.1 mph - N/A   Scattered Clouds
6:35 PM 72.0 °F - 44.2 °F 37% 30.16 in 10.0 mi SW 6.9 mph - N/A   Scattered Clouds
6:54 PM 71.2 °F - 45.1 °F 39% 30.16 in 10.0 mi WSW 4.6 mph - N/A   Scattered Clouds
7:15 PM 69.6 °F - 46.8 °F 44% 30.16 in 10.0 mi SW 3.5 mph - N/A   Clear
7:35 PM 66.9 °F - 48.2 °F 51% 30.15 in 10.0 mi WSW 3.5 mph - N/A   Clear
7:54 PM 65.7 °F - 48.0 °F 53% 30.15 in 10.0 mi WSW 3.5 mph - N/A   Clear
8:15 PM 61.9 °F - 49.1 °F 63% 30.14 in 10.0 mi SSW 4.6 mph - N/A   Clear
8:35 PM 59.7 °F - 49.8 °F 70% 30.14 in 10.0 mi Calm Calm - N/A   Clear
8:55 PM 56.8 °F - 49.3 °F 76% 30.15 in 10.0 mi Calm Calm - N/A   Clear
9:15 PM 56.8 °F - 48.7 °F 74% 30.15 in 10.0 mi Calm Calm - N/A   Clear
9:35 PM 55.9 °F - 50.4 °F 82% 30.15 in 10.0 mi East 3.5 mph - N/A   Clear
9:55 PM 55.0 °F - 50.5 °F 85% 30.15 in 10.0 mi Calm Calm - N/A   Clear
10:15 PM 52.7 °F - 49.1 °F 88% 30.14 in 10.0 mi WNW 4.6 mph - N/A   Clear
10:35 PM 52.5 °F - 46.9 °F 81% 30.14 in 10.0 mi Calm Calm - N/A   Clear
10:55 PM 51.6 °F - 48.2 °F 88% 30.14 in 10.0 mi Calm Calm - N/A   Clear
11:15 PM 51.3 °F - 47.5 °F 87% 30.14 in 10.0 mi Calm Calm - N/A   Clear
11:34 PM 50.5 °F - 47.1 °F 88% 30.14 in 10.0 mi Calm Calm - N/A   Clear
11:55 PM 49.5 °F - 46.8 °F 90% 30.13 in 10.0 mi Calm Calm - N/A   Clear